Location: Carnoy
(49.9849°N, 2.7558°E)
Time: 11:35:43
(UTC+00:00)

CZ-4 R/B - Pass Details

Date: 24 January 2020
Orbit: 534 x 597 km, 97.7° (Epoch: 21 February)

Event Time Altitude Azimuth Distance (km) Brightness Sun altitude
Rises 19:01:52 0° 200° (SSW) 2,761 5.2 -24.3°
Reaches altitude 10° 19:04:22 10° 216° (SW) 1,881 4.5 -24.7°
Maximum altitude 19:07:35 22° 268° (W) 1,287 3.9 -25.2°
Drops below altitude 10° 19:10:52 10° 320° (NW) 1,921 4.6 -25.7°
Sets 19:13:27 0° 335° (NNW) 2,837 5.3 -26.1°
